Regional Weather Roundup
Issued by NWS Albany, NY

Home | Current Version | Previous Version | Text Only | Print | Product List | Glossary On
Versions: 1 2 3 4 5 6 7 8 9 10 11 12 13 14 15 16 17 18 19 20 21 22 23 24 25 26 27 28 29 30 31 32 33 34 35 36 37 38 39 40 41 42 43 44 45 46 47 48 49 50
000
ASUS41 KALY 290710
RWRALY

NEW YORK STATE HOURLY WEATHER ROUNDUP
NATIONAL WEATHER SERVICE ALBANY NY
300 AM EDT SUN MAR 29 2015

NOTE: "FAIR" INDICATES FEW OR NO CLOUDS BELOW 12,000 FEET WITH NO
SIGNIFICANT WEATHER AND/OR NO OBSTRUCTIONS TO VISIBILITY.

NYZ032-033-038>043-046>054-057>066-NYZ062>081-290800-
EAST


CITY           SKY/WX    TMP DP  RH WIND       PRES   REMARKS
ALBANY         CLEAR     19   5  54 CALM      30.16S
GLENS FALLS    CLEAR     21   3  45 N3        30.14S
POUGHKEEPSIE   CLOUDY    26   5  40 N8        30.15R WCI  18
NEWBURGH       MOCLDY    23   7  50 N7        30.14R WCI  15
MONTGOMERY     MOCLDY    23   3  42 NW8       30.13S WCI  14
WHITE PLAINS   MOCLDY    24  10  55 NW14G21   30.10R WCI  12
ISLIP          FLURRIES  26  18  71 N17       30.08S WCI  13
NEW YORK CITY  CLOUDY    27  12  53 NW15      30.14S WCI  15
CENTRAL PARK   CLOUDY    27   9  46 VRB7      30.16R WCI  19
$$

NYZ005>009-017-018-044>046-055-056-290800-
CENTRAL


CITY           SKY/WX    TMP DP  RH WIND       PRES   REMARKS
FULTON         CLEAR     13   7  77 CALM      30.20S
SYRACUSE       CLEAR     19  10  68 SW6       30.20S WCI  11
ROME           CLEAR     11   6  81 CALM      30.21S
ELMIRA         CLEAR     16   9  74 SW6       30.21S WCI   7
BINGHAMTON     CLEAR     14   5  67 NW5       30.11S WCI   6
MONTICELLO     CLEAR     16   3  57 NW7       30.10S WCI   6
$$

NYZ026>034-041>043-290800-
NORTH


CITY           SKY/WX    TMP DP  RH WIND       PRES   REMARKS
WATERTOWN      FAIR      13   7  77 CALM      30.20R
FORT DRUM      NOT AVBL
MASSENA        CLEAR     15   4  61 SW6       30.18R WCI   6
SARANAC LAKE   CLEAR     -6 -11  79 CALM      30.05S
PLATTSBURGH    CLEAR     20   2  45 VRB5      30.12S WCI  13
$$

NYZ001>004-010>016-019>021-290800-
WEST


CITY           SKY/WX    TMP DP  RH WIND       PRES   REMARKS
NIAGARA FALLS  CLEAR     19  12  74 W6        30.26S WCI  11
BUFFALO        CLEAR     18  12  77 SW5       30.26S WCI  11
DUNKIRK        CLEAR     17  12  80 SW6       30.29S WCI   9
JAMESTOWN      CLEAR     16   9  73 W3        30.21S
WELLSVILLE     CLEAR     12   5  73 W9        30.16S WCI   0
ROCHESTER      CLEAR     20  11  68 W8        30.24S WCI  10
PENN YAN       CLEAR     20  10  65 SW7       30.20S WCI  11
$$

             KEY
       WCI = WIND CHILL INDEX
       VSB = VISIBILITY
       HX  = HEAT INDEX
$$



USA.gov is the U.S. government's official web portal to all federal, state and local government web resources and services.